Location: Corralito
(14.1667°N, 87.1833°W)
Time: 00:03:17
(UTC+00:00)

Meteor 1-4 Rocket - Pass Details

Date: 07 June 2020
Orbit: 450 x 501 km, 81.2° (Epoch: 11 July)

Event Time Altitude Azimuth Distance (km) Brightness Sun altitude
Rises 00:54:16 0° 195° (SSW) 2,445 6.0 -9.3°
Reaches altitude 10° 00:56:23 10° 201° (SSW) 1,573 5.1 -9.7°
Maximum altitude 00:59:42 48° 276° (W) 596 3.5 -10.5°
Drops below altitude 10° 01:03:01 10° 352° (N) 1,577 5.7 -11.2°
Sets 01:05:08 0° 358° (N) 2,452 6.6 -11.6°
